User: anonymous   Login
Location: Unspecified
(0.0000°N, 0.0000°E)
Time: 21:55:11
(UTC+00:00)
Language:

SJ-6A - Orbit

View from above orbital plane
View from above orbital plane
View from above satellite
View from above satellite

Ground track
Ground track

The orbit is defined by the following mean orbital elements,

1 28413U          26145.35535499 +.00000000 +00000-0 +38511-3 0 00003
2 28413  97.5880 172.4042 0005637 199.0692 161.0332 15.17613180    03
Epoch (UTC): 25 May 2026 08:31:42
Eccentricity: 0.0005637
inclination: 97.5880°
perigee height: 509 km
apogee height: 517 km
right ascension of ascending node: 172.4042°
argument of perigee: 199.0692°
revolutions per day: 15.17613180
mean anomaly at epoch: 161.0332°

The dashed part of the orbit path shows where the satellite is in the earth's shadow,  

DLR